Regional Weather Roundup
Issued by NWS

Home | Current Version | Previous Version | Text Only | Print | Product List | Glossary Off
Versions: 1 2 3 4 5 6 7 8 9 10 11 12 13 14 15 16 17 18 19 20 21 22 23 24 25 26 27 28 29 30 31 32 33 34 35 36 37 38 39 40 41 42 43 44 45 46 47 48 49 50

000
ASUS43 KLOT 220406
RWRIL

ILLINOIS REGIONAL WEATHER ROUNDUP
NATIONAL WEATHER SERVICE CHICAGO/ROMEOVILLE IL
1100 PM CDT TUE OCT 21 2014

NOTE: "FAIR" INDICATES FEW OR NO CLOUDS BELOW 12,000 FEET WITH NO
SIGNIFICANT WEATHER AND/OR OBSTRUCTIONS TO VISIBILITY.

* THESE STATIONS ARE NOT UNDER NWS QUALITY CONTROL. THEY ALSO MAY NOT
  REPORT WEATHER SUCH AS PRECIPITATION OR FOG.

ILZ001-002-007-009-015-016-024-220500-
NORTHWEST ILLINOIS

CITY           SKY/WX    TMP DP  RH WIND       PRES   REMARKS
MOLINE         CLEAR     40  35  83 E6        30.26R
STERLING*      CLEAR     37  32  81 E6        30.27S WCI  33
SAVANNA*       CLEAR     40  36  83 CALM      30.27R
$$

ILZ003-004-008-010-011-017-018-220500-
NORTH CENTRAL ILLINOIS

CITY           SKY/WX    TMP DP  RH WIND       PRES   REMARKS
ROCKFORD       CLEAR     40  34  79 E5        30.29F
FREEPORT*      CLEAR     33  32  94 CALM      30.29S
ROCHELLE*      CLEAR     36  34  93 CALM      30.28S
DE KALB*       CLEAR     36  33  90 NE5       30.27F WCI  32
PERU*          CLEAR     42  37  80 E6        30.27S
$$

ILZ005-006-012>014-019>023-220500-
NORTHEAST ILLINOIS

CITY           SKY/WX    TMP DP  RH WIND       PRES   REMARKS
CHICAGO-OHARE  MOCLDY    47  38  71 N3        30.25F
CHICAGO-MIDWAY CLOUDY    51  39  63 NE8       30.25F
AURORA         CLEAR     36  32  85 CALM      30.27S
LANSING*       CLOUDY    49  39  69 E7        30.25S
JOLIET*        CLOUDY    47  38  71 NE3       30.26F
WAUKEGAN       MOCLDY    44  38  79 N3        30.26S
DUPAGE AIRPORT MOCLDY    42  36  79 N6        30.26S
KANKAKEE*      CLOUDY    48  40  73 N3        30.26S
WHEELING       CLOUDY    50  37  61 E3        30.27S
MORRIS*        CLOUDY    45  39  80 CALM      30.26S
ROMEOVILLE*    CLOUDY    46  37  70 NE3       30.26S
NORTHERLY ISL    N/A     50  41  71 NE12        N/A
$$

LMZ740>746-220500-
SOUTHERN LAKE MICHIGAN

STATION/POSITION SKY/WX   TEMP    WIND        PRES    VSBY  WAVE
                          AIR SEA DIR/SP/G                  HT/PER
                          (F)     (DEG/KT/KT) (MB)    (MI)  (FT/S)
SOUTHERN BUOY              50 54   30/ 12/ 14 1024.9S         5/ 6
WAUKEGAN HARBOR            49      50/ 12/ 15   N/A
HARRISON CRIB              50      30/ 12/ 15   N/A
BURNHAM HARBOR             50      50/ 10/ 13   N/A
CALUMET HARBOR             51      20/  7/ 10 1023.2F
MICHIGAN CITY              44     110/  7/  7   N/A
$$

ILZ025>027-034>036-040-047-049-050-058-095>099-220500-
WEST-CENTRAL ILLINOIS

CITY           SKY/WX    TMP DP  RH WIND       PRES   REMARKS
QUINCY         CLEAR     48  39  71 E8        30.21R
GALESBURG*     CLEAR     44  38  81 E7        30.24S
MACOMB*        CLEAR     40  37  88 E5        30.25S
JACKSONVILLE*  CLEAR     44  40  85 E5        30.23S
PITTSFIELD*    CLEAR     48  40  72 E6        30.23R
$$

ILZ028>032-037-038-041>044-048-051>054-059>061-220500-
CENTRAL ILLINOIS

CITY           SKY/WX    TMP DP  RH WIND       PRES   REMARKS
PONTIAC        MOCLDY    41  36  83 NE5       30.26S
BLOOMINGTON    CLEAR     40  38  93 NE7       30.26R
DECATUR        CLEAR     40  38  93 NE7       30.24R
PEORIA         CLEAR     47  38  71 NE9       30.26R
LACON*         CLEAR     41  36  83 E6        30.26S
LINCOLN*       CLEAR     41  38  90 NE3       30.24S
SPRINGFIELD    CLEAR     46  41  82 E7        30.24R
TAYLORVILLE    CLEAR     45  39  81 E8        30.23S
$$

ILZ033-039-045-046-055>057-062-063-220500-
EAST-CENTRAL ILLINOIS

CITY           SKY/WX    TMP DP  RH WIND       PRES   REMARKS
CHAMPAIGN      CLOUDY    50  40  68 NE9       30.24R
DANVILLE*      CLOUDY    45  39  81 NE7       30.21S
RANTOUL*       CLOUDY    51  38  61 NE14      30.25R
MATTOON        CLEAR     43  39  86 NE5       30.23R
PARIS*         CLEAR     45  41  86 CALM      30.24R
$$

ILZ079-100>102-220500-
SOUTHWEST ILLINOIS

CITY           SKY/WX    TMP DP  RH WIND       PRES   REMARKS
ALTON          CLEAR     49  38  64 E7        30.21S
BELLEVILLE     CLEAR     49  42  76 NE5       30.20R
CAHOKIA*       CLEAR     50  41  71 E8        30.20R
SPARTA*        CLEAR     48  42  79 NE6       30.21R
$$

ILZ064>066-069>071-074>076-080>082-084>086-088>090-092>094-220500-
SOUTH-CENTRAL ILLINOIS

CITY           SKY/WX    TMP DP  RH WIND       PRES   REMARKS
CARBONDALE     CLEAR     47  41  80 CALM      30.19R
CAIRO*         CLEAR     54  45  71 NE5       30.17R
EFFINGHAM*     CLEAR     47  40  75 CALM      30.23R
MARION         CLEAR     50  43  76 NE3       30.19S
MT. VERNON     CLEAR     46  37  71 NE7       30.21S
CENTRALIA*     CLEAR     47  40  75 NE5       30.21S
SALEM*         CLEAR     49  43  81 NE6       30.22S
METROPOLIS*    CLEAR     51  44  76 NE5       30.17R
$$

ILZ067-068-072-073-078-083-087-091-220500-
SOUTHEAST ILLINOIS

CITY           SKY/WX    TMP DP  RH WIND       PRES   REMARKS
LAWRENCEVILLE  CLEAR     48  44  86 N8        30.21R
FLORA*         CLEAR     47  41  81 N5        30.22S
FAIRFIELD*     CLEAR     46  41  81 N7        30.20R
HARRISBURG*    CLEAR     50  41  71 NE6       30.20S
ROBINSON*      CLEAR     48  45  90 N8        30.22S
CARMI*         CLEAR     45  41  86 N5        30.19S
$$

ABBREVIATIONS USED IN REMARKS
   TC - TEMPERATURE IN CELSIUS
  WCI - WIND CHILL INDEX
   HX - HEAT INDEX
  VSB - VISIBILITY
$$




USA.gov is the U.S. government's official web portal to all federal, state and local government web resources and services.